Date String (YYYY-MM-DD hh:mm:ss) UTC,Instrument flags,Ambient pressure (hPa),Sample flow (lpm),Bypass flow (lpm),Sample temperature (°C),Ambient temperature (°C),ASC tube jacket temperature (°C),LED temperature (°C),Box temperature (°C),Sample RH (%),Span deviation,Mass concentration (μg/m³),Mass concentration (μg/m³),Mass concentration (μg/m³)
DateTimeUTC,F1_M11,P_M11,Q1_M11,Q2_M11,T1_M11,T2_M11,T3_M11,T4_M11,T5_M11,U1_M11,ZSPAN_M11,X0_M11,X2_M11,X1_M11
2023-02-23 08:00:00,,0817.0,5.01,0.00,22.4,20.4,00.0,31.3,23.8,03.2,0000.0,0007.46,0003.22,0002.74
2023-02-23 08:01:00,,0817.1,5.02,0.00,22.4,21.5,00.0,31.2,24.0,03.2,0000.0,0006.91,0003.24,0002.75
2023-02-23 08:02:00,,0817.0,4.97,0.00,22.5,22.5,00.0,31.2,24.3,03.1,0000.0,0007.35,0003.26,0002.76
2023-02-23 08:03:00,,0816.9,4.98,0.00,22.6,23.2,00.0,31.2,24.5,03.1,0000.0,0007.16,0003.24,0002.76
2023-02-23 08:04:00,,0817.0,4.97,0.00,22.7,22.8,00.0,31.3,24.4,03.1,0000.0,0006.09,0003.25,0002.77
2023-02-23 08:05:00,,0817.0,5.01,0.00,22.6,22.1,00.0,31.3,24.2,03.1,0000.0,0006.05,0003.25,0002.78
2023-02-23 08:06:00,,0817.1,4.99,0.00,22.6,21.5,00.0,31.3,24.0,03.1,0000.0,0006.05,0003.25,0002.77
2023-02-23 08:07:00,,0817.0,5.00,0.00,22.5,21.0,00.0,31.3,23.9,03.1,0000.0,0005.98,0003.23,0002.76
2023-02-23 08:08:00,,0817.0,5.00,0.00,22.4,20.5,00.0,31.3,23.7,03.1,0000.0,0005.90,0003.23,0002.76
2023-02-23 08:09:00,,0817.1,5.01,0.00,22.4,20.9,00.0,31.2,23.8,03.1,0000.0,0005.84,0003.23,0002.75
2023-02-23 08:10:00,,0817.1,4.95,0.00,22.5,22.0,00.0,31.2,24.1,03.1,0000.0,0005.62,0003.20,0002.73
2023-02-23 08:11:00,,0817.1,5.00,0.00,22.6,22.9,00.0,31.2,24.4,03.1,0000.0,0005.52,0003.20,0002.73
2023-02-23 08:12:00,,0817.1,4.97,0.00,22.6,22.9,00.0,31.2,24.4,03.1,0000.0,0005.50,0003.19,0002.73
2023-02-23 08:13:00,,0817.1,4.98,0.00,22.6,21.9,00.0,31.2,24.1,03.1,0000.0,0005.37,0003.20,0002.71
2023-02-23 08:14:00,,0817.2,4.99,0.00,22.5,21.0,00.0,31.2,23.9,03.1,0000.0,0005.94,0003.24,0002.72
2023-02-23 08:15:00,,0817.1,5.00,0.00,22.4,20.4,00.0,31.2,23.7,03.1,0000.0,0005.90,0003.24,0002.72
2023-02-23 08:16:00,,0817.1,5.00,0.00,22.2,20.0,00.0,31.1,23.5,03.1,0000.0,0005.86,0003.23,0002.72
2023-02-23 08:17:00,,0817.1,5.00,0.00,22.2,19.9,00.0,31.1,23.5,03.1,0000.0,0005.96,0003.27,0002.76
2023-02-23 08:18:00,,0817.1,5.00,0.00,22.2,20.9,00.0,31.1,23.7,03.1,0000.0,0006.06,0003.30,0002.78
2023-02-23 08:19:00,,0817.2,5.01,0.00,22.3,22.0,00.0,31.1,24.0,03.1,0000.0,0006.12,0003.30,0002.78
2023-02-23 08:20:00,,0817.3,4.99,0.00,22.4,22.7,00.0,31.1,24.2,03.1,0000.0,0006.06,0003.29,0002.80
2023-02-23 08:21:00,,0817.3,4.99,0.00,22.5,22.8,00.0,31.1,24.2,03.1,0000.0,0006.16,0003.32,0002.82
2023-02-23 08:22:00,,0817.4,4.97,0.00,22.4,21.9,00.0,31.1,24.0,03.1,0000.0,0006.15,0003.34,0002.85
2023-02-23 08:23:00,,0817.4,5.00,0.00,22.3,21.1,00.0,31.1,23.7,03.1,0000.0,0006.88,0003.35,0002.87
2023-02-23 08:24:00,,0817.4,5.00,0.00,22.2,20.4,00.0,31.1,23.5,03.1,0000.0,0006.43,0003.36,0002.90
2023-02-23 08:25:00,,0817.4,5.02,0.00,22.1,20.1,00.0,31.1,23.3,03.2,0000.0,0005.79,0003.32,0002.91
2023-02-23 08:26:00,,0817.5,5.01,0.00,22.1,21.0,00.0,31.0,23.6,03.2,0000.0,0005.84,0003.34,0002.92
2023-02-23 08:27:00,,0817.5,5.00,0.00,22.2,22.0,00.0,31.0,23.9,03.2,0000.0,0005.85,0003.35,0002.95
2023-02-23 08:28:00,,0817.5,4.98,0.00,22.3,22.7,00.0,31.0,24.1,03.2,0000.0,0005.86,0003.35,0002.97
2023-02-23 08:29:00,,0817.4,5.00,0.00,22.4,22.8,00.0,31.0,24.1,03.1,0000.0,0005.94,0003.38,0002.99
2023-02-23 08:30:00,,0817.3,5.00,0.00,22.4,22.1,00.0,31.1,24.0,03.1,0000.0,0005.89,0003.37,0002.99
2023-02-23 08:31:00,,0817.3,4.99,0.00,22.3,21.4,00.0,31.1,23.8,03.1,0000.0,0006.00,0003.38,0003.00
2023-02-23 08:32:00,,0817.5,4.97,0.00,22.2,20.8,00.0,31.0,23.6,03.1,0000.0,0006.00,0003.38,0003.01
2023-02-23 08:33:00,,0817.6,5.00,0.00,22.1,20.2,00.0,31.0,23.4,03.2,0000.0,0005.92,0003.37,0003.01
2023-02-23 08:34:00,,0817.5,5.02,0.00,22.1,20.5,00.0,30.9,23.5,03.2,0000.0,0005.13,0003.34,0003.01
2023-02-23 08:35:00,,0817.5,4.97,0.00,22.2,21.7,00.0,30.9,23.8,03.2,0000.0,0005.43,0003.35,0003.03
2023-02-23 08:36:00,,0817.5,5.01,0.00,22.3,22.5,00.0,30.9,24.0,03.2,0000.0,0005.65,0003.39,0003.04
2023-02-23 08:37:00,,0817.5,5.04,0.00,22.4,23.1,00.0,31.0,24.2,03.1,0000.0,0005.74,0003.40,0003.05
2023-02-23 08:38:00,,0817.6,4.99,0.00,22.4,22.6,00.0,31.0,24.2,03.1,0000.0,0005.90,0003.43,0003.06
2023-02-23 08:39:00,,0817.6,5.01,0.00,22.4,21.9,00.0,31.0,24.0,03.1,0000.0,0006.55,0003.42,0003.06
2023-02-23 08:40:00,,0817.6,5.01,0.00,22.3,21.3,00.0,31.0,23.8,03.1,0000.0,0007.01,0003.42,0003.08
2023-02-23 08:41:00,,0817.5,4.97,0.00,22.2,20.8,00.0,31.0,23.6,03.1,0000.0,0007.21,0003.47,0003.14
2023-02-23 08:42:00,,0817.3,4.99,0.00,22.2,20.3,00.0,31.0,23.5,03.2,0000.0,0007.18,0003.50,0003.16
2023-02-23 08:43:00,,0817.5,5.01,0.00,22.1,20.5,00.0,30.9,23.5,03.2,0000.0,0007.22,0003.52,0003.18
2023-02-23 08:44:00,,0817.5,4.98,0.00,22.2,21.5,00.0,30.9,23.9,03.1,0000.0,0007.25,0003.56,0003.21
2023-02-23 08:45:00,,0817.5,5.03,0.00,22.3,22.5,00.0,30.9,24.1,03.1,0000.0,0007.34,0003.59,0003.24
2023-02-23 08:46:00,,0817.6,5.01,0.00,22.4,23.2,00.0,31.0,24.3,03.1,0000.0,0006.92,0003.62,0003.26
2023-02-23 08:47:00,,0817.7,4.99,0.00,22.5,22.9,00.0,31.0,24.2,03.1,0000.0,0006.79,0003.61,0003.28
2023-02-23 08:48:00,,0817.8,5.01,0.00,22.4,22.2,00.0,31.1,24.1,03.1,0000.0,0006.84,0003.62,0003.30
2023-02-23 08:49:00,,0817.6,4.98,0.00,22.4,21.5,00.0,31.1,23.9,03.1,0000.0,0006.95,0003.63,0003.31
2023-02-23 08:50:00,,0817.6,5.01,0.00,22.3,21.0,00.0,31.1,23.8,03.1,0000.0,0006.22,0003.64,0003.33
2023-02-23 08:51:00,,0817.6,5.00,0.00,22.2,20.5,00.0,31.0,23.6,03.1,0001.4,0005.85,0003.64,0003.34
2023-02-23 08:52:00,,0817.8,5.02,0.00,22.1,20.2,00.0,31.0,23.5,03.1,0002.7,0005.75,0003.62,0003.34
2023-02-23 08:53:00,,0817.8,5.01,0.00,22.1,21.0,00.0,31.0,23.7,03.2,0002.6,0005.86,0003.63,0003.35
2023-02-23 08:54:00,,0817.6,5.03,0.00,22.2,22.1,00.0,31.0,24.0,03.1,0001.5,0005.82,0003.62,0003.36
2023-02-23 08:55:00,,0817.5,5.01,0.00,22.4,22.9,00.0,31.0,24.2,03.1,0001.6,0005.82,0003.61,0003.35
2023-02-23 08:56:00,,0817.5,5.03,0.00,22.4,22.6,00.0,31.0,24.2,03.1,0002.2,0005.78,0003.60,0003.36
2023-02-23 08:57:00,,0817.5,5.01,0.00,22.4,21.9,00.0,31.0,24.1,03.1,0001.9,0005.81,0003.59,0003.35
2023-02-23 08:58:00,,0817.6,5.00,0.00,22.3,21.3,00.0,31.0,23.9,03.1,0002.2,0005.76,0003.58,0003.35
2023-02-23 08:59:00,,0817.6,5.00,0.00,22.2,20.6,00.0,31.0,23.6,03.1,0002.2,0005.97,0003.59,0003.34
